Time,TemperatureF,DewpointF,PressureIn,WindDirection,WindDirectionDegrees,WindSpeedMPH,WindSpeedGustMPH,Humidity,HourlyPrecipIn,Conditions,Clouds,dailyrainin,SolarRadiationWatts/m^2,SoftwareType,DateUTC
2013-02-09 00:11:00,27.0,20.0,-100.00,SW,220,11.0,19.0,75,0.00,,,0.00,0.000000,,2013-02-09 07:11:00,
2013-02-09 00:21:00,27.0,20.0,-100.00,SW,220,11.0,19.0,75,0.00,,,0.00,0.000000,,2013-02-09 07:21:00,
2013-02-09 00:31:00,27.0,20.0,-100.00,SW,220,11.0,19.0,75,0.00,,,0.00,0.000000,,2013-02-09 07:31:00,
2013-02-09 00:42:00,27.0,20.0,-100.00,SW,220,11.0,19.0,75,0.00,,,0.00,0.000000,,2013-02-09 07:42:00,
2013-02-09 01:11:00,27.0,19.0,-100.00,South,190,4.0,15.0,71,0.00,,,0.00,0.000000,,2013-02-09 08:11:00,
2013-02-09 01:21:00,27.0,19.0,-100.00,South,190,4.0,15.0,71,0.00,,,0.00,0.000000,,2013-02-09 08:21:00,
2013-02-09 01:31:00,27.0,19.0,-100.00,South,190,4.0,15.0,71,0.00,,,0.00,0.000000,,2013-02-09 08:31:00,
2013-02-09 01:41:00,27.0,19.0,-100.00,South,190,4.0,15.0,71,0.00,,,0.00,0.000000,,2013-02-09 08:41:00,
2013-02-09 02:11:00,25.0,20.0,-100.00,North,356,4.0,6.0,82,0.00,,,0.00,0.000000,,2013-02-09 09:11:00,
2013-02-09 02:21:00,25.0,20.0,-100.00,North,356,4.0,6.0,82,0.00,,,0.00,0.000000,,2013-02-09 09:21:00,
2013-02-09 02:31:00,25.0,20.0,-100.00,North,356,4.0,6.0,82,0.00,,,0.00,0.000000,,2013-02-09 09:31:00,
2013-02-09 02:41:00,25.0,20.0,-100.00,North,356,4.0,6.0,82,0.00,,,0.00,0.000000,,2013-02-09 09:41:00,
2013-02-09 03:21:00,23.0,21.0,-100.00,ENE,75,3.0,10.0,92,0.00,,,0.00,0.000000,,2013-02-09 10:21:00,
2013-02-09 03:31:00,23.0,21.0,-100.00,ENE,75,3.0,10.0,92,0.00,,,0.00,0.000000,,2013-02-09 10:31:00,
2013-02-09 03:41:00,23.0,21.0,-100.00,ENE,75,3.0,10.0,92,0.00,,,0.00,0.000000,,2013-02-09 10:41:00,
2013-02-09 04:11:00,23.0,21.0,-100.00,North,356,5.0,8.0,93,0.00,,,0.00,0.000000,,2013-02-09 11:11:00,
2013-02-09 04:21:00,23.0,21.0,-100.00,North,356,5.0,8.0,93,0.00,,,0.00,0.000000,,2013-02-09 11:21:00,
2013-02-09 04:31:00,23.0,21.0,-100.00,North,356,5.0,8.0,93,0.00,,,0.00,0.000000,,2013-02-09 11:31:00,
2013-02-09 04:41:00,23.0,21.0,-100.00,North,356,5.0,8.0,93,0.00,,,0.00,0.000000,,2013-02-09 11:41:00,
2013-02-09 05:11:00,22.0,20.0,-100.00,WNW,287,6.0,13.0,92,0.00,,,0.00,0.000000,,2013-02-09 12:11:00,
2013-02-09 05:21:00,22.0,20.0,-100.00,WNW,287,6.0,13.0,92,0.00,,,0.00,0.000000,,2013-02-09 12:21:00,
2013-02-09 05:32:00,22.0,20.0,-100.00,WNW,287,6.0,13.0,92,0.00,,,0.00,0.000000,,2013-02-09 12:32:00,
2013-02-09 05:42:00,22.0,20.0,-100.00,WNW,287,6.0,13.0,92,0.00,,,0.00,0.000000,,2013-02-09 12:42:00,
2013-02-09 06:21:00,22.0,20.0,-100.00,North,352,2.0,9.0,92,0.00,,,0.00,0.000000,,2013-02-09 13:21:00,
2013-02-09 06:32:00,22.0,20.0,-100.00,North,352,2.0,9.0,92,0.00,,,0.00,0.000000,,2013-02-09 13:32:00,
2013-02-09 06:42:00,22.0,20.0,-100.00,North,352,2.0,9.0,92,0.00,,,0.00,0.000000,,2013-02-09 13:42:00,
2013-02-09 07:11:00,22.0,20.0,-100.00,NW,308,9.0,12.0,93,0.00,,,0.00,0.000000,,2013-02-09 14:11:00,
2013-02-09 07:21:00,22.0,20.0,-100.00,NW,308,9.0,12.0,93,0.00,,,0.00,0.000000,,2013-02-09 14:21:00,
2013-02-09 07:31:00,22.0,20.0,-100.00,NW,308,9.0,12.0,93,0.00,,,0.00,0.000000,,2013-02-09 14:31:00,
2013-02-09 07:41:00,22.0,20.0,-100.00,NW,308,9.0,12.0,93,0.00,,,0.00,0.000000,,2013-02-09 14:41:00,
2013-02-09 08:11:00,21.0,19.0,-100.00,WNW,290,7.0,24.0,91,0.00,,,0.00,3.000000,,2013-02-09 15:11:00,
2013-02-09 08:21:00,21.0,19.0,-100.00,WNW,290,7.0,24.0,91,0.00,,,0.00,3.000000,,2013-02-09 15:21:00,
2013-02-09 08:31:00,21.0,19.0,-100.00,WNW,290,7.0,24.0,91,0.00,,,0.00,3.000000,,2013-02-09 15:31:00,
2013-02-09 08:41:00,21.0,19.0,-100.00,WNW,290,7.0,24.0,91,0.00,,,0.00,3.000000,,2013-02-09 15:41:00,
2013-02-09 09:11:00,20.0,18.0,-100.00,WSW,255,7.0,20.0,90,0.00,,,0.00,45.000000,,2013-02-09 16:11:00,
2013-02-09 09:22:00,20.0,18.0,-100.00,WSW,255,7.0,20.0,90,0.00,,,0.00,45.000000,,2013-02-09 16:22:00,
2013-02-09 09:31:00,20.0,18.0,-100.00,WSW,255,7.0,20.0,90,0.00,,,0.00,45.000000,,2013-02-09 16:31:00,
2013-02-09 09:41:00,20.0,18.0,-100.00,WSW,255,7.0,20.0,90,0.00,,,0.00,45.000000,,2013-02-09 16:41:00,
2013-02-09 10:21:00,21.0,18.0,-100.00,North,351,8.0,13.0,89,0.00,,,0.00,92.000000,,2013-02-09 17:21:00,
2013-02-09 10:32:00,21.0,18.0,-100.00,North,351,8.0,13.0,89,0.00,,,0.00,92.000000,,2013-02-09 17:32:00,
2013-02-09 10:41:00,21.0,18.0,-100.00,North,351,8.0,13.0,89,0.00,,,0.00,92.000000,,2013-02-09 17:41:00,
2013-02-09 11:12:00,24.0,20.0,-100.00,WSW,254,3.0,7.0,84,0.00,,,0.00,250.000000,,2013-02-09 18:12:00,
2013-02-09 11:23:00,24.0,20.0,-100.00,WSW,254,3.0,7.0,84,0.00,,,0.00,250.000000,,2013-02-09 18:23:00,
2013-02-09 11:31:00,24.0,20.0,-100.00,WSW,254,3.0,7.0,84,0.00,,,0.00,250.000000,,2013-02-09 18:31:00,
2013-02-09 11:41:00,24.0,20.0,-100.00,WSW,254,3.0,7.0,84,0.00,,,0.00,250.000000,,2013-02-09 18:41:00,
2013-02-09 12:11:00,28.0,23.0,-100.00,NNW,337,5.0,7.0,80,0.00,,,-99.99,382.000000,,2013-02-09 19:11:00,
2013-02-09 12:22:00,28.0,23.0,-100.00,NNW,337,5.0,7.0,80,0.00,,,-99.99,382.000000,,2013-02-09 19:22:00,
2013-02-09 12:31:00,28.0,23.0,-100.00,NNW,337,5.0,7.0,80,0.00,,,-99.99,382.000000,,2013-02-09 19:31:00,
2013-02-09 12:41:00,28.0,23.0,-100.00,NNW,337,5.0,7.0,80,0.00,,,-99.99,382.000000,,2013-02-09 19:41:00,
2013-02-09 13:11:00,25.0,20.0,-100.00,NNW,348,11.0,15.0,80,0.00,,,0.00,490.000000,,2013-02-09 20:11:00,
2013-02-09 13:21:00,25.0,20.0,-100.00,NNW,348,11.0,15.0,80,0.00,,,0.00,490.000000,,2013-02-09 20:21:00,
2013-02-09 13:31:00,25.0,20.0,-100.00,NNW,348,11.0,15.0,80,0.00,,,0.00,490.000000,,2013-02-09 20:31:00,
2013-02-09 13:41:00,25.0,20.0,-100.00,NNW,348,11.0,15.0,80,0.00,,,0.00,490.000000,,2013-02-09 20:41:00,
2013-02-09 14:11:00,24.0,20.0,-100.00,NNW,336,13.0,20.0,85,0.04,,,0.04,358.000000,,2013-02-09 21:11:00,
2013-02-09 14:21:00,24.0,20.0,-100.00,NNW,336,13.0,20.0,85,0.04,,,0.04,358.000000,,2013-02-09 21:21:00,
2013-02-09 14:31:00,24.0,20.0,-100.00,NNW,336,13.0,20.0,85,0.04,,,0.04,358.000000,,2013-02-09 21:31:00,
2013-02-09 14:41:00,24.0,20.0,-100.00,NNW,336,13.0,20.0,85,0.04,,,0.04,358.000000,,2013-02-09 21:41:00,
2013-02-09 15:11:00,20.0,18.0,-100.00,NNW,336,13.0,26.0,90,0.00,,,0.04,200.000000,,2013-02-09 22:11:00,
2013-02-09 15:21:00,20.0,18.0,-100.00,NNW,336,13.0,26.0,90,0.00,,,0.04,200.000000,,2013-02-09 22:21:00,
2013-02-09 15:31:00,20.0,18.0,-100.00,NNW,336,13.0,26.0,90,0.00,,,0.04,200.000000,,2013-02-09 22:31:00,
2013-02-09 15:41:00,20.0,18.0,-100.00,NNW,336,13.0,26.0,90,0.00,,,0.04,200.000000,,2013-02-09 22:41:00,
2013-02-09 16:11:00,23.0,18.0,-100.00,NW,311,7.0,16.0,82,0.00,,,0.04,268.000000,,2013-02-09 23:11:00,
2013-02-09 16:21:00,23.0,18.0,-100.00,NW,311,7.0,16.0,82,0.00,,,0.04,268.000000,,2013-02-09 23:21:00,
2013-02-09 16:31:00,23.0,18.0,-100.00,NW,311,7.0,16.0,82,0.00,,,0.04,268.000000,,2013-02-09 23:31:00,
2013-02-09 16:41:00,23.0,18.0,-100.00,NW,311,7.0,16.0,82,0.00,,,0.04,268.000000,,2013-02-09 23:41:00,
2013-02-09 17:21:00,20.0,15.0,-100.00,NNW,333,7.0,15.0,81,0.00,,,0.04,210.000000,,2013-02-10 00:21:00,
2013-02-09 17:32:00,20.0,15.0,-100.00,NNW,333,7.0,15.0,81,0.00,,,0.04,210.000000,,2013-02-10 00:32:00,
2013-02-09 17:41:00,20.0,15.0,-100.00,NNW,333,7.0,15.0,81,0.00,,,0.04,210.000000,,2013-02-10 00:41:00,
2013-02-09 18:12:00,18.0,14.0,-100.00,WNW,295,6.0,15.0,83,0.00,,,0.04,31.000000,,2013-02-10 01:12:00,
2013-02-09 18:21:00,18.0,14.0,-100.00,WNW,295,6.0,15.0,83,0.00,,,0.04,31.000000,,2013-02-10 01:21:00,
2013-02-09 18:31:00,18.0,14.0,-100.00,WNW,295,6.0,15.0,83,0.00,,,0.04,31.000000,,2013-02-10 01:31:00,
2013-02-09 18:41:00,18.0,14.0,-100.00,WNW,295,6.0,15.0,83,0.00,,,0.04,31.000000,,2013-02-10 01:41:00,
2013-02-09 19:22:00,17.0,13.0,-100.00,NW,315,10.0,14.0,85,0.00,,,0.04,0.000000,,2013-02-10 02:22:00,
2013-02-09 19:31:00,17.0,13.0,-100.00,NW,315,10.0,14.0,85,0.00,,,0.04,0.000000,,2013-02-10 02:31:00,
2013-02-09 19:41:00,17.0,13.0,-100.00,NW,315,10.0,14.0,85,0.00,,,0.04,0.000000,,2013-02-10 02:41:00,
2013-02-09 20:11:00,17.0,12.0,-100.00,WNW,283,6.0,14.0,82,0.00,,,0.04,0.000000,,2013-02-10 03:11:00,
2013-02-09 20:21:00,17.0,12.0,-100.00,WNW,283,6.0,14.0,82,0.00,,,0.04,0.000000,,2013-02-10 03:21:00,
2013-02-09 20:32:00,17.0,12.0,-100.00,WNW,283,6.0,14.0,82,0.00,,,0.04,0.000000,,2013-02-10 03:32:00,
2013-02-09 20:41:00,17.0,12.0,-100.00,WNW,283,6.0,14.0,82,0.00,,,0.04,0.000000,,2013-02-10 03:41:00,
2013-02-09 21:11:00,16.0,7.0,-100.00,West,276,9.0,15.0,68,0.00,,,0.04,0.000000,,2013-02-10 04:11:00,
2013-02-09 21:21:00,16.0,7.0,-100.00,West,276,9.0,15.0,68,0.00,,,0.04,0.000000,,2013-02-10 04:21:00,
2013-02-09 21:32:00,16.0,7.0,-100.00,West,276,9.0,15.0,68,0.00,,,0.04,0.000000,,2013-02-10 04:32:00,
2013-02-09 21:41:00,16.0,7.0,-100.00,West,276,9.0,15.0,68,0.00,,,0.04,0.000000,,2013-02-10 04:41:00,
2013-02-09 22:22:00,15.0,7.0,-100.00,West,278,10.0,16.0,70,0.00,,,0.04,0.000000,,2013-02-10 05:22:00,
2013-02-09 22:31:00,15.0,7.0,-100.00,West,278,10.0,16.0,70,0.00,,,0.04,0.000000,,2013-02-10 05:31:00,
2013-02-09 22:41:00,15.0,7.0,-100.00,West,278,10.0,16.0,70,0.00,,,0.04,0.000000,,2013-02-10 05:41:00,
2013-02-09 23:21:00,14.0,7.0,-100.00,WNW,283,9.0,15.0,72,0.00,,,0.04,0.000000,,2013-02-10 06:21:00,
2013-02-09 23:32:00,14.0,7.0,-100.00,WNW,283,9.0,15.0,72,0.00,,,0.04,0.000000,,2013-02-10 06:32:00,
2013-02-09 23:42:00,14.0,7.0,-100.00,WNW,283,9.0,15.0,72,0.00,,,0.04,0.000000,,2013-02-10 06:42:00,